TimeEET,TemperatureF,Dew PointF,Humidity,Sea Level PressureIn,VisibilityMPH,Wind Direction,Wind SpeedMPH,Gust SpeedMPH,PrecipitationIn,Events,Conditions,WindDirDegrees,DateUTC
12:50 AM,15.8,6.8,68,30.06,-9999.0,SW,15.0,-,N/A,,Clear,220,2013-01-17 22:50:00
1:50 AM,19.4,8.6,63,30.09,-9999.0,WSW,16.1,-,N/A,,Clear,240,2013-01-17 23:50:00
2:00 AM,19,11,59,,6,WSW,16.1,,,,,240,2013-01-18 00:00:00
2:50 AM,17.6,10.4,73,30.09,-9999.0,SW,13.8,-,N/A,,Clear,220,2013-01-18 00:50:00
3:50 AM,15.8,8.6,73,30.09,-9999.0,SW,3.5,-,N/A,,Clear,220,2013-01-18 01:50:00
4:50 AM,15.8,6.8,68,30.09,-9999.0,SSW,10.4,-,N/A,,Clear,210,2013-01-18 02:50:00
5:50 AM,21.2,10.4,63,30.09,6.2,SW,17.3,-,N/A,,Partly Cloudy,220,2013-01-18 03:50:00
6:50 AM,19.4,10.4,68,30.12,6.2,West,9.2,-,N/A,,Scattered Clouds,260,2013-01-18 04:50:00
7:50 AM,15.8,6.8,68,30.12,6.2,WSW,8.1,-,N/A,,Scattered Clouds,250,2013-01-18 05:50:00
8:00 AM,17,8,56,,6,WSW,8.1,,,,Partly Cloudy,250,2013-01-18 06:00:00
8:50 AM,21.2,8.6,58,30.15,6.2,West,2.3,-,N/A,,Scattered Clouds,280,2013-01-18 06:50:00
9:50 AM,21.2,10.4,63,30.12,-9999.0,West,8.1,-,N/A,,Clear,260,2013-01-18 07:50:00
10:50 AM,23.0,14.0,68,30.12,6.2,WSW,5.8,-,N/A,,Partly Cloudy,240,2013-01-18 08:50:00
11:50 AM,23.0,14.0,68,30.09,6.2,WSW,5.8,-,N/A,,Mostly Cloudy,240,2013-01-18 09:50:00
12:50 PM,26.6,15.8,64,30.09,6.2,West,5.8,-,N/A,,Mostly Cloudy,280,2013-01-18 10:50:00
1:50 PM,28.4,17.6,64,30.09,6.2,NW,4.6,-,N/A,,Mostly Cloudy,320,2013-01-18 11:50:00
2:00 PM,28,17,49,,6,NW,4.6,,,,Partly Cloudy,320,2013-01-18 12:00:00
2:50 PM,21.2,14.0,74,30.09,6.2,NNE,10.4,-,N/A,,Mostly Cloudy,30,2013-01-18 12:50:00
3:50 PM,21.2,12.2,68,30.09,6.2,NE,8.1,-,N/A,,Mostly Cloudy,40,2013-01-18 13:50:00
4:50 PM,17.6,12.2,79,30.09,6.2,NE,8.1,-,N/A,,Mostly Cloudy,50,2013-01-18 14:50:00
5:50 PM,12.2,8.6,85,30.12,6.2,ESE,4.6,-,N/A,,Mostly Cloudy,110,2013-01-18 15:50:00
6:50 PM,14.0,8.6,79,30.12,6.2,Calm,Calm,-,N/A,,Mostly Cloudy,0,2013-01-18 16:50:00
8:00 PM,13,8,71,,6,Calm,Calm,,,,Mostly Cloudy,,2013-01-18 18:00:00
8:50 PM,10.4,6.8,85,30.12,6.2,Calm,Calm,-,N/A,,Mostly Cloudy,0,2013-01-18 18:50:00
9:50 PM,10.4,6.8,85,30.12,6.2,Calm,Calm,-,N/A,,Mostly Cloudy,0,2013-01-18 19:50:00
10:50 PM,10.4,6.8,85,30.09,6.2,Calm,Calm,-,N/A,,Mostly Cloudy,0,2013-01-18 20:50:00
11:50 PM,8.6,3.2,79,30.09,6.2,South,1.2,-,N/A,,Mostly Cloudy,170,2013-01-18 21:50:00